User: anonymous   Login
Location: Prairie State College
(41.5244°N, 87.6382°W)
Time: 00:05:43
(UTC-05:00)
Language:

ARGOS Delta rocket - Orbit

View from above orbital plane
View from above orbital plane
View from above satellite
View from above satellite

Ground track
Ground track

The orbit data is extracted from the following two-line orbital elements,

1 25637U 99008D   17141.77358833 +.00000061 +00000-0 +22776-4 0  9992
2 25637 096.4857 048.0380 0142955 005.8480 056.6249 14.46514551961798
Epoch (UTC): 21 May 2017 18:33:58
Eccentricity: 0.0142955
inclination: 96.4857°
perigee height: 635 km
apogee height: 839 km
right ascension of ascending node: 48.0380°
argument of perigee: 5.8480°
revolutions per day: 14.46514551
mean anomaly at epoch: 56.6249°
orbit number at epoch: 96179

The dashed part of the orbit path shows where the satellite is in the earth's shadow,  

DLR